Location: Wildlife_Club
(35.6000°N, 81.4330°W)
Time: 02:01:08
(UTC-04:00)

Vanguard 2 Rocket - Pass Details

Date: 26 June 2019
Orbit: 554 x 3326 km, 32.9° (Epoch: 15 July)

Event Time Altitude Azimuth Distance (km) Brightness Sun altitude
Rises 00:14:05 0° 269° (W) 4,030 10.4 -28.5°
Reaches altitude 10° 00:16:20 10° 267° (W) 3,326 9.9 -28.6°
Maximum altitude 00:25:08 78° 183° (S) 1,956 8.3 -29.2°
Drops below altitude 10° 00:41:05 10° 101° (E) 5,682 10.7 -30.0°
Sets 00:46:14 0° 100° (E) 6,986 11.2 -30.2°
